DELTA 1 DEB, 10826

Orbit data source: Space-Track

DELTA 1 DEB, 10826 is space debris in SSO originally from a launch on Thu, 29 Jul 1976 UTC launched from the Air Force Western Test Range (AFWTR). Debris objects in space refer to the collection of defunct objects orbiting the Earth. Examples of debris include non-operational satellites, rocket bodies, and fragments generated from explosions, collisions, or faulty payload assembly.

Loading next visibility...
Identifier
10826, 1976-077BW
Orbit
SSO
Country
Flag of USUS
Related business
Manufacturer
Unknown
Mission
Spacecraft
Bus & Motor
Unknown
Mass
Unknown
Launch date (UTC)
1976-07-29 (49 years ago)
Launch vehicle
Unknown
Launch site
Air Force Western Test Range (AFWTR)
Object type
Payload
Rocket body
Debris
Shape & HBR
Unknown shape, 0.1 m
Radar Cross Section
Small (<0.1 m²)

Expand to show TLE details & history
Last TLE update: 1 day ago

TLE from 1 day ago
0 DELTA 1 DEB
1 10826U 76077BW  25345.53039384  .00009639  00000-0  54678-1 0  9996
2 10826 101.9276 253.9340 0116955  84.7558  96.9450 12.59486008225369
Epoch: 2025-12-11T12:43Z
TLE epoch observation values (Epoch: 2025-12-11T12:43:46.027Z)
Latitude
-3.08543°
Longitude
161.85799°
Altitude
1,440.186 km
Speed
7.136 km/s
True Right ascension
04h 53m 08s
True Declination
-3° 04' 07"
Sunlit
Object was in full shadow at epoch
Visualization orbit readout
Latitude
Unknown
Longitude
Unknown
Altitude
Unknown
Speed
Unknown
Apparent Right ascension
Unknown
Apparent Declination
Unknown
Sunlit
N/A
Visualization observer readout
Local Sidereal Time
22:51:28
Azimuth
Unknown
Elevation
Unknown
Doppler factor
Unknown
Orbital elements
Apogee altitude
1,513.845 km
Perigee altitude
1,331.378 km
Semi-major axis
7,800.748 km
Eccentricity
0.0117
Inclination
101.9276°
RAAN
253.934°
Arg. of periapsis
84.7558°
True anomaly
98.27291°
Mean anomaly
96.945°
Eccentric anomaly
97.6092°
Mean motion
3.1502 °/min
Orbital period
114.28 mins
BSTAR
0.054678
Loading maneuver chart data...
Computing Atmospheric mass density...
Loading historical data...
Loading historical data...
Loading historical data...
Loading historical data...
Loading historical data...
Loading historical data...
Loading historical data...

Documentation

Showing up to 5 results
|